User: anonymous   Login
Location: Castro Valley
(37.6940°N, 122.0850°W)
Time: 22:18:15
(UTC-08:00)
Language:

PANSAT - Orbit

View from above orbital plane
View from above orbital plane
View from above satellite
View from above satellite

Ground track
Ground track

The orbit data is extracted from the following two-line orbital elements,

1 25520U 98064B   14329.14051771  .00004602  00000-0  17293-3 0  6237
2 25520 028.4567 220.6452 0004431 077.0084 048.7403 15.24611754891210
Epoch (UTC): 25 November 2014 03:22:20
Eccentricity: 0.0004431
inclination: 28.4567°
perigee height: 489 km
apogee height: 495 km
right ascension of ascending node: 220.6452°
argument of perigee: 77.0084°
revolutions per day: 15.24611754
mean anomaly at epoch: 48.7403°
orbit number at epoch: 89121

The dashed part of the orbit path shows where the satellite is in the earth's shadow,  

DLR